Year,Month,Day,Hour,Minute,Value (Times are PST for temperature in C)
2005,03,14,00,00,8.00
2005,03,14,00,01,8.00
2005,03,14,00,02,8.00
2005,03,14,00,03,8.00
2005,03,14,00,04,7.90
2005,03,14,00,05,7.70
2005,03,14,00,06,7.50
2005,03,14,00,07,7.40
2005,03,14,00,08,7.20
2005,03,14,00,09,7.00
2005,03,14,00,10,6.90
2005,03,14,00,11,6.80
2005,03,14,00,12,6.80
2005,03,14,00,13,6.80
2005,03,14,00,14,6.80
2005,03,14,00,15,6.80
2005,03,14,00,16,6.80
2005,03,14,00,17,6.80
2005,03,14,00,18,6.80
2005,03,14,00,19,6.80
2005,03,14,00,20,6.80
2005,03,14,00,21,6.80
2005,03,14,00,22,6.70
2005,03,14,00,23,6.60
2005,03,14,00,24,6.60
2005,03,14,00,25,6.60
2005,03,14,00,26,6.60
2005,03,14,00,27,6.50
2005,03,14,00,28,6.40
2005,03,14,00,29,6.40
2005,03,14,00,30,6.40
2005,03,14,00,31,6.40
2005,03,14,00,32,6.40
2005,03,14,00,33,6.50
2005,03,14,00,34,6.40
2005,03,14,00,35,6.50
2005,03,14,00,36,6.40
2005,03,14,00,37,6.30
2005,03,14,00,38,6.20
2005,03,14,00,39,6.10
2005,03,14,00,40,6.10
2005,03,14,00,41,6.10
2005,03,14,00,42,6.10
2005,03,14,00,43,6.00
2005,03,14,00,44,6.00
2005,03,14,00,45,6.00
2005,03,14,00,46,6.00
2005,03,14,00,47,6.00
2005,03,14,00,48,6.10
2005,03,14,00,49,6.10
2005,03,14,00,50,6.20
2005,03,14,00,51,6.20
2005,03,14,00,52,6.30
2005,03,14,00,53,6.30
2005,03,14,00,54,6.30
2005,03,14,00,55,6.40
2005,03,14,00,56,6.30
2005,03,14,00,57,6.20
2005,03,14,00,58,6.00
2005,03,14,00,59,5.90
2005,03,14,01,00,5.80
2005,03,14,01,01,5.80
2005,03,14,01,02,5.70
2005,03,14,01,03,5.70
2005,03,14,01,04,5.80
2005,03,14,01,05,5.80
2005,03,14,01,06,5.80
2005,03,14,01,07,5.70
2005,03,14,01,08,5.70
2005,03,14,01,09,5.70
2005,03,14,01,10,5.70
2005,03,14,01,11,5.90
2005,03,14,01,12,5.90
2005,03,14,01,13,6.10
2005,03,14,01,14,6.20
2005,03,14,01,15,6.20
2005,03,14,01,16,6.20
2005,03,14,01,17,6.30
2005,03,14,01,18,6.40
2005,03,14,01,19,6.40
2005,03,14,01,20,6.50
2005,03,14,01,21,6.60
2005,03,14,01,22,6.60
2005,03,14,01,23,6.60
2005,03,14,01,24,6.60
2005,03,14,01,25,6.60
2005,03,14,01,26,6.60
2005,03,14,01,27,6.50
2005,03,14,01,28,6.40
2005,03,14,01,29,6.40
2005,03,14,01,30,6.40
2005,03,14,01,31,6.30
2005,03,14,01,32,6.20
2005,03,14,01,33,6.20
2005,03,14,01,34,6.00
2005,03,14,01,35,5.90
2005,03,14,01,36,5.80
2005,03,14,01,37,5.70
2005,03,14,01,38,5.70
2005,03,14,01,39,5.60
2005,03,14,01,40,5.60
2005,03,14,01,41,5.50
2005,03,14,01,42,5.40
2005,03,14,01,43,5.40
2005,03,14,01,44,5.30
2005,03,14,01,45,5.40
2005,03,14,01,46,5.40
2005,03,14,01,47,5.40
2005,03,14,01,48,5.50
2005,03,14,01,49,5.50
2005,03,14,01,50,5.60
2005,03,14,01,51,5.60
2005,03,14,01,52,5.70
2005,03,14,01,53,5.70
2005,03,14,01,54,5.70
2005,03,14,01,55,5.70
2005,03,14,01,56,5.70
2005,03,14,01,57,5.70
2005,03,14,01,58,5.70
2005,03,14,01,59,5.70
2005,03,14,02,00,5.70
2005,03,14,02,01,5.70
2005,03,14,02,02,5.70
2005,03,14,02,03,5.70
2005,03,14,02,04,5.80
2005,03,14,02,05,5.80
2005,03,14,02,06,5.90
2005,03,14,02,07,5.90
2005,03,14,02,08,5.80
2005,03,14,02,09,5.80
2005,03,14,02,10,5.80
2005,03,14,02,11,5.90
2005,03,14,02,12,5.90
2005,03,14,02,13,5.90
2005,03,14,02,14,5.90
2005,03,14,02,15,5.90
2005,03,14,02,16,6.00
2005,03,14,02,17,6.10
2005,03,14,02,18,6.10
2005,03,14,02,19,6.10
2005,03,14,02,20,6.00
2005,03,14,02,21,5.90
2005,03,14,02,22,6.00
2005,03,14,02,23,6.00
2005,03,14,02,24,6.10
2005,03,14,02,25,6.10
2005,03,14,02,26,6.00
2005,03,14,02,27,6.10
2005,03,14,02,28,6.10
2005,03,14,02,29,6.10
2005,03,14,02,30,6.20
2005,03,14,02,31,6.20
2005,03,14,02,32,6.30
2005,03,14,02,33,6.20
2005,03,14,02,34,6.00
2005,03,14,02,35,5.90
2005,03,14,02,36,5.80
2005,03,14,02,37,5.80
2005,03,14,02,38,5.70
2005,03,14,02,39,5.70
2005,03,14,02,40,5.60
2005,03,14,02,41,5.60
2005,03,14,02,42,5.60
2005,03,14,02,43,5.50
2005,03,14,02,44,5.60
2005,03,14,02,45,5.60
2005,03,14,02,46,5.50
2005,03,14,02,47,5.50
2005,03,14,02,48,5.50
2005,03,14,02,49,5.40
2005,03,14,02,50,5.30
2005,03,14,02,51,5.30
2005,03,14,02,52,5.20
2005,03,14,02,53,5.10
2005,03,14,02,54,5.10
2005,03,14,02,55,5.10
2005,03,14,02,56,5.10
2005,03,14,02,57,5.10
2005,03,14,02,58,5.10
2005,03,14,02,59,5.10
2005,03,14,03,00,5.00
2005,03,14,03,01,5.10
2005,03,14,03,02,5.10
2005,03,14,03,03,5.20
2005,03,14,03,04,5.30
2005,03,14,03,05,5.30
2005,03,14,03,06,5.40
2005,03,14,03,07,5.50
2005,03,14,03,08,5.50
2005,03,14,03,09,5.50
2005,03,14,03,10,5.50
2005,03,14,03,11,5.60
2005,03,14,03,12,5.60
2005,03,14,03,13,5.70
2005,03,14,03,14,5.70
2005,03,14,03,15,5.70
2005,03,14,03,16,5.70
2005,03,14,03,17,5.70
2005,03,14,03,18,5.70
2005,03,14,03,19,5.60
2005,03,14,03,20,5.50
2005,03,14,03,21,5.40
2005,03,14,03,22,5.30
2005,03,14,03,23,5.20
2005,03,14,03,24,5.10
2005,03,14,03,25,5.10
2005,03,14,03,26,5.10
2005,03,14,03,27,5.10
2005,03,14,03,28,5.10
2005,03,14,03,29,5.20
2005,03,14,03,30,5.30
2005,03,14,03,31,5.30
2005,03,14,03,32,5.40
2005,03,14,03,33,5.40
2005,03,14,03,34,5.40
2005,03,14,03,35,5.40
2005,03,14,03,36,5.50
2005,03,14,03,37,5.50
2005,03,14,03,38,5.60
2005,03,14,03,39,5.60
2005,03,14,03,40,5.70
2005,03,14,03,41,5.70
2005,03,14,03,42,5.60
2005,03,14,03,43,5.60
2005,03,14,03,44,5.40
2005,03,14,03,45,5.30
2005,03,14,03,46,5.20
2005,03,14,03,47,5.10
2005,03,14,03,48,5.10
2005,03,14,03,49,5.10
2005,03,14,03,50,4.90
2005,03,14,03,51,4.90
2005,03,14,03,52,4.90
2005,03,14,03,53,5.00
2005,03,14,03,54,5.10
2005,03,14,03,55,5.20
2005,03,14,03,56,5.30
2005,03,14,03,57,5.30
2005,03,14,03,58,5.30
2005,03,14,03,59,5.30
2005,03,14,04,00,5.40
2005,03,14,04,01,5.40
2005,03,14,04,02,5.30
2005,03,14,04,03,5.20
2005,03,14,04,04,5.20
2005,03,14,04,05,5.10
2005,03,14,04,06,5.10
2005,03,14,04,07,5.20
2005,03,14,04,08,5.30
2005,03,14,04,09,5.50
2005,03,14,04,10,5.60
2005,03,14,04,11,5.60
2005,03,14,04,12,5.70
2005,03,14,04,13,5.70
2005,03,14,04,14,5.80
2005,03,14,04,15,5.90
2005,03,14,04,16,6.10
2005,03,14,04,17,6.10
2005,03,14,04,18,6.20
2005,03,14,04,19,6.40
2005,03,14,04,20,6.50
2005,03,14,04,21,6.70
2005,03,14,04,22,6.70
2005,03,14,04,23,6.80
2005,03,14,04,24,6.80
2005,03,14,04,25,6.90
2005,03,14,04,26,6.90
2005,03,14,04,27,6.90
2005,03,14,04,28,6.80
2005,03,14,04,29,6.80
2005,03,14,04,30,6.70
2005,03,14,04,31,6.60
2005,03,14,04,32,6.60
2005,03,14,04,33,6.50
2005,03,14,04,34,6.50
2005,03,14,04,35,6.50
2005,03,14,04,36,6.60
2005,03,14,04,37,6.60
2005,03,14,04,38,6.60
2005,03,14,04,39,6.60
2005,03,14,04,40,6.70
2005,03,14,04,41,6.80
2005,03,14,04,42,6.80
2005,03,14,04,43,6.80
2005,03,14,04,44,6.90
2005,03,14,04,45,7.00
2005,03,14,04,46,7.10
2005,03,14,04,47,7.10
2005,03,14,04,48,7.10
2005,03,14,04,49,7.10
2005,03,14,04,50,7.10
2005,03,14,04,51,7.10
2005,03,14,04,52,7.10
2005,03,14,04,53,7.00
2005,03,14,04,54,6.90
2005,03,14,04,55,6.80
2005,03,14,04,56,6.80
2005,03,14,04,57,6.70
2005,03,14,04,58,6.80
2005,03,14,04,59,6.80
2005,03,14,05,00,6.80
2005,03,14,05,01,6.80
2005,03,14,05,02,6.70
2005,03,14,05,03,6.70
2005,03,14,05,04,6.80
2005,03,14,05,05,6.80
2005,03,14,05,06,6.80
2005,03,14,05,07,6.80
2005,03,14,05,08,6.80
2005,03,14,05,09,6.80
2005,03,14,05,10,6.80
2005,03,14,05,11,6.80
2005,03,14,05,12,6.80
2005,03,14,05,13,6.80
2005,03,14,05,14,6.80
2005,03,14,05,15,6.80
2005,03,14,05,16,6.80
2005,03,14,05,17,6.80
2005,03,14,05,18,6.80
2005,03,14,05,19,6.70
2005,03,14,05,20,6.70
2005,03,14,05,21,6.60
2005,03,14,05,22,6.50
2005,03,14,05,23,6.40
2005,03,14,05,24,6.40
2005,03,14,05,25,6.30
2005,03,14,05,26,6.40
2005,03,14,05,27,6.40
2005,03,14,05,28,6.50
2005,03,14,05,29,6.60
2005,03,14,05,30,6.70
2005,03,14,05,31,6.70
2005,03,14,05,32,6.60
2005,03,14,05,33,6.50
2005,03,14,05,34,6.30
2005,03,14,05,35,6.20
2005,03,14,05,36,6.10
2005,03,14,05,37,6.00
2005,03,14,05,38,5.90
2005,03,14,05,39,5.90
2005,03,14,05,40,5.80
2005,03,14,05,41,5.80
2005,03,14,05,42,5.70
2005,03,14,05,43,5.70
2005,03,14,05,44,5.70
2005,03,14,05,45,5.60
2005,03,14,05,46,5.60
2005,03,14,05,47,5.50
2005,03,14,05,48,5.50
2005,03,14,05,49,5.50
2005,03,14,05,50,5.40
2005,03,14,05,51,5.40
2005,03,14,05,52,5.30
2005,03,14,05,53,5.40
2005,03,14,05,54,5.50
2005,03,14,05,55,5.50
2005,03,14,05,56,5.60
2005,03,14,05,57,5.70
2005,03,14,05,58,5.80
2005,03,14,05,59,5.90
2005,03,14,06,00,6.00
2005,03,14,06,01,6.00
2005,03,14,06,02,6.10
2005,03,14,06,03,6.10
2005,03,14,06,04,6.20
2005,03,14,06,05,6.20
2005,03,14,06,06,6.20
2005,03,14,06,07,6.20
2005,03,14,06,08,6.20
2005,03,14,06,09,6.20
2005,03,14,06,10,6.30
2005,03,14,06,11,6.30
2005,03,14,06,12,6.40
2005,03,14,06,13,6.40
2005,03,14,06,14,6.40
2005,03,14,06,15,6.40
2005,03,14,06,16,6.40
2005,03,14,06,17,6.40
2005,03,14,06,18,6.40
2005,03,14,06,19,6.40
2005,03,14,06,20,6.40
2005,03,14,06,21,6.50
2005,03,14,06,22,6.60
2005,03,14,06,23,6.50
2005,03,14,06,24,6.30
2005,03,14,06,25,6.20
2005,03,14,06,26,6.20
2005,03,14,06,27,6.20
2005,03,14,06,28,6.20
2005,03,14,06,29,6.20
2005,03,14,06,30,6.30
2005,03,14,06,31,6.40
2005,03,14,06,32,6.40
2005,03,14,06,33,6.40
2005,03,14,06,34,6.40
2005,03,14,06,35,6.30
2005,03,14,06,36,6.30
2005,03,14,06,37,6.30
2005,03,14,06,38,6.30
2005,03,14,06,39,6.20
2005,03,14,06,40,6.20
2005,03,14,06,41,6.20
2005,03,14,06,42,6.20
2005,03,14,06,43,6.10
2005,03,14,06,44,6.00
2005,03,14,06,45,5.90
2005,03,14,06,46,5.80
2005,03,14,06,47,5.70
2005,03,14,06,48,5.70
2005,03,14,06,49,5.80
2005,03,14,06,50,5.80
2005,03,14,06,51,5.90
2005,03,14,06,52,5.90
2005,03,14,06,53,5.90
2005,03,14,06,54,5.80
2005,03,14,06,55,5.80
2005,03,14,06,56,5.90
2005,03,14,06,57,6.00
2005,03,14,06,58,6.10
2005,03,14,06,59,6.30
2005,03,14,07,00,6.40
2005,03,14,07,01,6.50
2005,03,14,07,02,6.60
2005,03,14,07,03,6.60
2005,03,14,07,04,6.60
2005,03,14,07,05,6.60
2005,03,14,07,06,6.50
2005,03,14,07,07,6.40
2005,03,14,07,08,6.20
2005,03,14,07,09,6.20
2005,03,14,07,10,6.10
2005,03,14,07,11,6.00
2005,03,14,07,12,6.00
2005,03,14,07,13,5.90
2005,03,14,07,14,5.90
2005,03,14,07,15,5.80
2005,03,14,07,16,5.70
2005,03,14,07,17,5.80
2005,03,14,07,18,5.80
2005,03,14,07,19,5.90
2005,03,14,07,20,5.90
2005,03,14,07,21,5.90
2005,03,14,07,22,5.90
2005,03,14,07,23,5.90
2005,03,14,07,24,5.80
2005,03,14,07,25,5.80
2005,03,14,07,26,5.80
2005,03,14,07,27,5.80
2005,03,14,07,28,5.90
2005,03,14,07,29,5.90
2005,03,14,07,30,6.00
2005,03,14,07,31,6.10
2005,03,14,07,32,6.10
2005,03,14,07,33,6.20
2005,03,14,07,34,6.20
2005,03,14,07,35,6.30
2005,03,14,07,36,6.40
2005,03,14,07,37,6.50
2005,03,14,07,38,6.70
2005,03,14,07,39,6.70
2005,03,14,07,40,6.70
2005,03,14,07,41,6.70
2005,03,14,07,42,6.60
2005,03,14,07,43,6.70
2005,03,14,07,44,6.70
2005,03,14,07,45,6.60
2005,03,14,07,46,6.50
2005,03,14,07,47,6.40
2005,03,14,07,48,6.50
2005,03,14,07,49,6.60
2005,03,14,07,50,6.70
2005,03,14,07,51,6.80
2005,03,14,07,52,6.90
2005,03,14,07,53,7.00
2005,03,14,07,54,7.10
2005,03,14,07,55,7.20
2005,03,14,07,56,7.20
2005,03,14,07,57,7.20
2005,03,14,07,58,7.20
2005,03,14,07,59,7.10
2005,03,14,08,00,7.20
2005,03,14,08,01,7.40
2005,03,14,08,02,7.50
2005,03,14,08,03,7.60
2005,03,14,08,04,7.80
2005,03,14,08,05,7.90
2005,03,14,08,06,8.00
2005,03,14,08,07,8.20
2005,03,14,08,08,8.40
2005,03,14,08,09,8.40
2005,03,14,08,10,8.50
2005,03,14,08,11,8.60
2005,03,14,08,12,8.70
2005,03,14,08,13,8.80
2005,03,14,08,14,8.80
2005,03,14,08,15,9.00
2005,03,14,08,16,8.90
2005,03,14,08,17,9.00
2005,03,14,08,18,9.10
2005,03,14,08,19,9.10
2005,03,14,08,20,9.10
2005,03,14,08,21,9.00
2005,03,14,08,22,9.00
2005,03,14,08,23,9.10
2005,03,14,08,24,9.10
2005,03,14,08,25,9.10
2005,03,14,08,26,9.20
2005,03,14,08,27,9.30
2005,03,14,08,28,9.50
2005,03,14,08,29,9.50
2005,03,14,08,30,9.60
2005,03,14,08,31,9.70
2005,03,14,08,32,9.80
2005,03,14,08,33,9.80
2005,03,14,08,34,9.80
2005,03,14,08,35,9.80
2005,03,14,08,36,9.80
2005,03,14,08,37,9.70
2005,03,14,08,38,9.60
2005,03,14,08,39,9.60
2005,03,14,08,40,9.60
2005,03,14,08,41,9.70
2005,03,14,08,42,9.70
2005,03,14,08,43,9.70
2005,03,14,08,44,9.70
2005,03,14,08,45,9.70
2005,03,14,08,46,9.70
2005,03,14,08,47,9.70
2005,03,14,08,48,9.60
2005,03,14,08,49,9.50
2005,03,14,08,50,9.50
2005,03,14,08,51,9.40
2005,03,14,08,52,9.40
2005,03,14,08,53,9.30
2005,03,14,08,54,9.30
2005,03,14,08,55,9.20
2005,03,14,08,56,9.20
2005,03,14,08,57,9.20
2005,03,14,08,58,9.30
2005,03,14,08,59,9.40
2005,03,14,09,00,9.40
2005,03,14,09,01,9.40
2005,03,14,09,02,9.50
2005,03,14,09,03,9.60
2005,03,14,09,04,9.70
2005,03,14,09,05,9.70
2005,03,14,09,06,9.70
2005,03,14,09,07,9.80
2005,03,14,09,08,9.70
2005,03,14,09,09,9.70
2005,03,14,09,10,9.70
2005,03,14,09,11,9.60
2005,03,14,09,12,9.50
2005,03,14,09,13,9.50
2005,03,14,09,14,9.50
2005,03,14,09,15,9.50
2005,03,14,09,16,9.50
2005,03,14,09,17,9.50
2005,03,14,09,18,9.40
2005,03,14,09,19,9.40
2005,03,14,09,20,9.40
2005,03,14,09,21,9.40
2005,03,14,09,22,9.40
2005,03,14,09,23,9.50
2005,03,14,09,24,9.60
2005,03,14,09,25,9.60
2005,03,14,09,26,9.70
2005,03,14,09,27,9.70
2005,03,14,09,28,9.80
2005,03,14,09,29,9.90
2005,03,14,09,30,9.90
2005,03,14,09,31,9.90
2005,03,14,09,32,9.90
2005,03,14,09,33,10.00
2005,03,14,09,34,10.00
2005,03,14,09,35,9.90
2005,03,14,09,36,9.90
2005,03,14,09,37,9.90
2005,03,14,09,38,9.90
2005,03,14,09,39,9.90
2005,03,14,09,40,9.80
2005,03,14,09,41,9.70
2005,03,14,09,42,9.70
2005,03,14,09,43,9.70
2005,03,14,09,44,9.70
2005,03,14,09,45,9.80
2005,03,14,09,46,9.80
2005,03,14,09,47,9.90
2005,03,14,09,48,9.90
2005,03,14,09,49,9.90
2005,03,14,09,50,9.90
2005,03,14,09,51,9.80
2005,03,14,09,52,9.70
2005,03,14,09,53,9.70
2005,03,14,09,54,9.70
2005,03,14,09,55,9.70
2005,03,14,09,56,9.60
2005,03,14,09,57,9.50
2005,03,14,09,58,9.60
2005,03,14,09,59,9.50
2005,03,14,10,00,9.40
2005,03,14,10,01,9.40
2005,03,14,10,02,9.30
2005,03,14,10,03,9.30
2005,03,14,10,04,9.30
2005,03,14,10,05,9.20
2005,03,14,10,06,9.10
2005,03,14,10,07,9.10
2005,03,14,10,08,9.20
2005,03,14,10,09,9.20
2005,03,14,10,10,9.10
2005,03,14,10,11,9.20
2005,03,14,10,12,9.10
2005,03,14,10,13,9.00
2005,03,14,10,14,8.90
2005,03,14,10,15,9.00
2005,03,14,10,16,9.10
2005,03,14,10,17,9.20
2005,03,14,10,18,9.30
2005,03,14,10,19,9.30
2005,03,14,10,20,9.20
2005,03,14,10,21,9.20
2005,03,14,10,22,9.20
2005,03,14,10,23,9.20
2005,03,14,10,24,9.20
2005,03,14,10,25,9.40
2005,03,14,10,26,9.40
2005,03,14,10,27,9.40
2005,03,14,10,28,9.50
2005,03,14,10,29,9.50
2005,03,14,10,30,9.50
2005,03,14,10,31,9.70
2005,03,14,10,32,9.70
2005,03,14,10,33,9.70
2005,03,14,10,34,9.70
2005,03,14,10,35,9.60
2005,03,14,10,36,9.50
2005,03,14,10,37,9.50
2005,03,14,10,38,9.50
2005,03,14,10,39,9.60
2005,03,14,10,40,9.60
2005,03,14,10,41,9.70
2005,03,14,10,42,9.70
2005,03,14,10,43,9.70
2005,03,14,10,44,9.80
2005,03,14,10,45,9.80
2005,03,14,10,46,9.70
2005,03,14,10,47,9.80
2005,03,14,10,48,10.00
2005,03,14,10,49,10.30
2005,03,14,10,50,10.40
2005,03,14,10,51,10.50
2005,03,14,10,52,10.60
2005,03,14,10,53,10.40
2005,03,14,10,54,10.20
2005,03,14,10,55,10.20
2005,03,14,10,56,10.00
2005,03,14,10,57,10.00
2005,03,14,10,58,9.90
2005,03,14,10,59,10.10
2005,03,14,11,00,10.10
2005,03,14,11,01,10.00
2005,03,14,11,02,10.20
2005,03,14,11,03,10.40
2005,03,14,11,04,10.40
2005,03,14,11,05,10.40
2005,03,14,11,06,10.40
2005,03,14,11,07,10.30
2005,03,14,11,08,10.30
2005,03,14,11,09,10.40
2005,03,14,11,10,10.40
2005,03,14,11,11,10.40
2005,03,14,11,12,10.40
2005,03,14,11,13,10.40
2005,03,14,11,14,10.50
2005,03,14,11,15,10.60
2005,03,14,11,16,10.80
2005,03,14,11,17,10.90
2005,03,14,11,18,10.80
2005,03,14,11,19,10.90
2005,03,14,11,20,11.00
2005,03,14,11,21,10.90
2005,03,14,11,22,10.90
2005,03,14,11,23,10.90
2005,03,14,11,24,11.10
2005,03,14,11,25,11.30
2005,03,14,11,26,11.20
2005,03,14,11,27,11.20
2005,03,14,11,28,11.20
2005,03,14,11,29,11.20
2005,03,14,11,30,11.20
2005,03,14,11,31,11.20
2005,03,14,11,32,11.00
2005,03,14,11,33,10.90
2005,03,14,11,34,10.80
2005,03,14,11,35,10.70
2005,03,14,11,36,10.70
2005,03,14,11,37,10.60
2005,03,14,11,38,10.60
2005,03,14,11,39,10.70
2005,03,14,11,40,10.70
2005,03,14,11,41,10.60
2005,03,14,11,42,10.80
2005,03,14,11,43,11.10
2005,03,14,11,44,11.20
2005,03,14,11,45,11.20
2005,03,14,11,46,11.20
2005,03,14,11,47,11.40
2005,03,14,11,48,11.40
2005,03,14,11,49,11.40
2005,03,14,11,50,11.40
2005,03,14,11,51,11.50
2005,03,14,11,52,11.60
2005,03,14,11,53,11.60
2005,03,14,11,54,11.70
2005,03,14,11,55,11.70
2005,03,14,11,56,11.60
2005,03,14,11,57,11.70
2005,03,14,11,58,11.70
2005,03,14,11,59,11.70
2005,03,14,12,00,11.80
2005,03,14,12,01,11.80
2005,03,14,12,02,11.80
2005,03,14,12,03,11.90
2005,03,14,12,04,12.00
2005,03,14,12,05,12.20
2005,03,14,12,06,12.30
2005,03,14,12,07,12.50
2005,03,14,12,08,12.40
2005,03,14,12,09,12.20
2005,03,14,12,10,12.10
2005,03,14,12,11,12.10
2005,03,14,12,12,12.10
2005,03,14,12,13,12.10
2005,03,14,12,14,12.00
2005,03,14,12,15,11.80
2005,03,14,12,16,11.70
2005,03,14,12,17,11.70
2005,03,14,12,18,11.60
2005,03,14,12,19,11.60
2005,03,14,12,20,11.70
2005,03,14,12,21,11.70
2005,03,14,12,22,11.80
2005,03,14,12,23,11.80
2005,03,14,12,24,11.80
2005,03,14,12,25,11.80
2005,03,14,12,26,11.80
2005,03,14,12,27,11.90
2005,03,14,12,28,11.90
2005,03,14,12,29,12.00
2005,03,14,12,30,12.10
2005,03,14,12,31,12.20
2005,03,14,12,32,12.20
2005,03,14,12,33,12.30
2005,03,14,12,34,12.40
2005,03,14,12,35,12.40
2005,03,14,12,36,12.40
2005,03,14,12,37,12.30
2005,03,14,12,38,12.10
2005,03,14,12,39,11.90
2005,03,14,12,40,11.80
2005,03,14,12,41,11.80
2005,03,14,12,42,11.80
2005,03,14,12,43,11.70
2005,03,14,12,44,11.70
2005,03,14,12,45,11.80
2005,03,14,12,46,11.90
2005,03,14,12,47,11.90
2005,03,14,12,48,12.00
2005,03,14,12,49,12.10
2005,03,14,12,50,12.10
2005,03,14,12,51,12.20
2005,03,14,12,52,12.00
2005,03,14,12,53,11.90
2005,03,14,12,54,11.80
2005,03,14,12,55,11.80
2005,03,14,12,56,11.80
2005,03,14,12,57,11.80
2005,03,14,12,58,11.70
2005,03,14,12,59,11.80
2005,03,14,13,00,11.70
2005,03,14,13,01,11.60
2005,03,14,13,02,11.50
2005,03,14,13,03,11.60
2005,03,14,13,04,11.60
2005,03,14,13,05,11.60
2005,03,14,13,06,11.70
2005,03,14,13,07,11.80
2005,03,14,13,08,11.80
2005,03,14,13,09,11.80
2005,03,14,13,10,11.80
2005,03,14,13,11,11.80
2005,03,14,13,12,11.80
2005,03,14,13,13,11.60
2005,03,14,13,14,11.60
2005,03,14,13,15,11.60
2005,03,14,13,16,11.50
2005,03,14,13,17,11.60
2005,03,14,13,18,11.70
2005,03,14,13,19,11.80
2005,03,14,13,20,11.80
2005,03,14,13,21,11.70
2005,03,14,13,22,11.80
2005,03,14,13,23,11.80
2005,03,14,13,24,11.80
2005,03,14,13,25,11.80
2005,03,14,13,26,11.80
2005,03,14,13,27,11.80
2005,03,14,13,28,11.80
2005,03,14,13,29,11.80
2005,03,14,13,30,11.80
2005,03,14,13,31,11.80
2005,03,14,13,32,11.80
2005,03,14,13,33,11.90
2005,03,14,13,34,12.00
2005,03,14,13,35,12.00
2005,03,14,13,36,12.10
2005,03,14,13,37,12.10
2005,03,14,13,38,12.20
2005,03,14,13,39,12.30
2005,03,14,13,40,12.30
2005,03,14,13,41,12.40
2005,03,14,13,42,12.50
2005,03,14,13,43,12.60
2005,03,14,13,44,12.70
2005,03,14,13,45,12.90
2005,03,14,13,46,12.90
2005,03,14,13,47,12.80
2005,03,14,13,48,12.80
2005,03,14,13,49,12.70
2005,03,14,13,50,12.70
2005,03,14,13,51,12.70
2005,03,14,13,52,12.60
2005,03,14,13,53,12.60
2005,03,14,13,54,12.50
2005,03,14,13,55,12.40
2005,03,14,13,56,12.40
2005,03,14,13,57,12.50
2005,03,14,13,58,12.50
2005,03,14,13,59,12.50
2005,03,14,14,00,12.50
2005,03,14,14,01,12.60
2005,03,14,14,02,12.60
2005,03,14,14,03,12.60
2005,03,14,14,04,12.60
2005,03,14,14,05,12.60
2005,03,14,14,06,12.60
2005,03,14,14,07,12.60
2005,03,14,14,08,12.70
2005,03,14,14,09,12.60
2005,03,14,14,10,12.70
2005,03,14,14,11,12.80
2005,03,14,14,12,13.00
2005,03,14,14,13,12.90
2005,03,14,14,14,12.90
2005,03,14,14,15,12.80
2005,03,14,14,16,12.80
2005,03,14,14,17,12.80
2005,03,14,14,18,12.70
2005,03,14,14,19,12.60
2005,03,14,14,20,12.50
2005,03,14,14,21,12.40
2005,03,14,14,22,12.40
2005,03,14,14,23,12.50
2005,03,14,14,24,12.60
2005,03,14,14,25,12.70
2005,03,14,14,26,12.80
2005,03,14,14,27,12.80
2005,03,14,14,28,12.80
2005,03,14,14,29,12.80
2005,03,14,14,30,12.80
2005,03,14,14,31,12.80
2005,03,14,14,32,12.80
2005,03,14,14,33,12.80
2005,03,14,14,34,12.80
2005,03,14,14,35,12.90
2005,03,14,14,36,12.90
2005,03,14,14,37,12.90
2005,03,14,14,38,13.00
2005,03,14,14,39,13.20
2005,03,14,14,40,13.30
2005,03,14,14,41,13.30
2005,03,14,14,42,13.30
2005,03,14,14,43,13.20
2005,03,14,14,44,13.10
2005,03,14,14,45,13.10
2005,03,14,14,46,13.00
2005,03,14,14,47,13.10
2005,03,14,14,48,13.10
2005,03,14,14,49,13.00
2005,03,14,14,50,13.00
2005,03,14,14,51,13.00
2005,03,14,14,52,13.00
2005,03,14,14,53,13.00
2005,03,14,14,54,13.00
2005,03,14,14,55,13.10
2005,03,14,14,56,13.20
2005,03,14,14,57,13.30
2005,03,14,14,58,13.30
2005,03,14,14,59,13.30
2005,03,14,15,00,13.30
2005,03,14,15,01,13.30
2005,03,14,15,02,13.30
2005,03,14,15,03,13.30
2005,03,14,15,04,13.30
2005,03,14,15,05,13.20
2005,03,14,15,06,13.10
2005,03,14,15,07,13.00
2005,03,14,15,08,12.90
2005,03,14,15,09,12.90
2005,03,14,15,10,13.00
2005,03,14,15,11,13.10
2005,03,14,15,12,13.20
2005,03,14,15,13,13.20
2005,03,14,15,14,13.20
2005,03,14,15,15,13.10
2005,03,14,15,16,13.20
2005,03,14,15,17,13.30
2005,03,14,15,18,13.60
2005,03,14,15,19,13.60
2005,03,14,15,20,13.50
2005,03,14,15,21,13.40
2005,03,14,15,22,13.40
2005,03,14,15,23,13.30
2005,03,14,15,24,13.40
2005,03,14,15,25,13.50
2005,03,14,15,26,13.70
2005,03,14,15,27,13.90
2005,03,14,15,28,14.00
2005,03,14,15,29,14.00
2005,03,14,15,30,14.10
2005,03,14,15,31,14.20
2005,03,14,15,32,14.20
2005,03,14,15,33,14.30
2005,03,14,15,34,14.50
2005,03,14,15,35,14.60
2005,03,14,15,36,14.60
2005,03,14,15,37,14.70
2005,03,14,15,38,14.90
2005,03,14,15,39,15.00
2005,03,14,15,40,15.00
2005,03,14,15,41,15.10
2005,03,14,15,42,15.30
2005,03,14,15,43,15.40
2005,03,14,15,44,15.50
2005,03,14,15,45,15.60
2005,03,14,15,46,15.60
2005,03,14,15,47,15.60
2005,03,14,15,48,15.60
2005,03,14,15,49,15.60
2005,03,14,15,50,15.50
2005,03,14,15,51,15.50
2005,03,14,15,52,15.60
2005,03,14,15,53,15.40
2005,03,14,15,54,15.30
2005,03,14,15,55,15.20
2005,03,14,15,56,15.20
2005,03,14,15,57,15.20
2005,03,14,15,58,15.10
2005,03,14,15,59,15.00
2005,03,14,16,00,15.10
2005,03,14,16,01,15.20
2005,03,14,16,02,15.20
2005,03,14,16,03,15.30
2005,03,14,16,04,15.40
2005,03,14,16,05,15.40
2005,03,14,16,06,15.30
2005,03,14,16,07,15.30
2005,03,14,16,08,15.30
2005,03,14,16,09,15.20
2005,03,14,16,10,15.30
2005,03,14,16,11,15.40
2005,03,14,16,12,15.50
2005,03,14,16,13,15.50
2005,03,14,16,14,15.60
2005,03,14,16,15,15.70
2005,03,14,16,16,15.80
2005,03,14,16,17,15.70
2005,03,14,16,18,15.50
2005,03,14,16,19,15.40
2005,03,14,16,20,15.20
2005,03,14,16,21,15.10
2005,03,14,16,22,14.90
2005,03,14,16,23,15.00
2005,03,14,16,24,15.10
2005,03,14,16,25,15.10
2005,03,14,16,26,15.20
2005,03,14,16,27,15.20
2005,03,14,16,28,15.20
2005,03,14,16,29,15.00
2005,03,14,16,30,15.00
2005,03,14,16,31,14.90
2005,03,14,16,32,14.90
2005,03,14,16,33,14.90
2005,03,14,16,34,14.80
2005,03,14,16,35,14.80
2005,03,14,16,36,14.80
2005,03,14,16,37,14.80
2005,03,14,16,38,14.90
2005,03,14,16,39,14.80
2005,03,14,16,40,14.90
2005,03,14,16,41,14.90
2005,03,14,16,42,14.80
2005,03,14,16,43,14.60
2005,03,14,16,44,14.70
2005,03,14,16,45,14.70
2005,03,14,16,46,14.40
2005,03,14,16,47,14.40
2005,03,14,16,48,14.40
2005,03,14,16,49,14.40
2005,03,14,16,50,14.40
2005,03,14,16,51,14.30
2005,03,14,16,52,14.20
2005,03,14,16,53,14.10
2005,03,14,16,54,14.00
2005,03,14,16,55,13.90
2005,03,14,16,56,14.00
2005,03,14,16,57,13.90
2005,03,14,16,58,13.80
2005,03,14,16,59,13.80
2005,03,14,17,00,13.70
2005,03,14,17,01,13.70
2005,03,14,17,02,13.60
2005,03,14,17,03,13.50
2005,03,14,17,04,13.50
2005,03,14,17,05,13.50
2005,03,14,17,06,13.50
2005,03,14,17,07,13.40
2005,03,14,17,08,13.30
2005,03,14,17,09,13.10
2005,03,14,17,10,12.90
2005,03,14,17,11,12.80
2005,03,14,17,12,12.60
2005,03,14,17,13,12.50
2005,03,14,17,14,12.50
2005,03,14,17,15,12.50
2005,03,14,17,16,12.50
2005,03,14,17,17,12.60
2005,03,14,17,18,12.60
2005,03,14,17,19,12.70
2005,03,14,17,20,12.70
2005,03,14,17,21,12.70
2005,03,14,17,22,12.70
2005,03,14,17,23,12.80
2005,03,14,17,24,12.90
2005,03,14,17,25,12.90
2005,03,14,17,26,12.90
2005,03,14,17,27,12.80
2005,03,14,17,28,12.70
2005,03,14,17,29,12.70
2005,03,14,17,30,12.60
2005,03,14,17,31,12.60
2005,03,14,17,32,12.50
2005,03,14,17,33,12.50
2005,03,14,17,34,12.50
2005,03,14,17,35,12.60
2005,03,14,17,36,12.60
2005,03,14,17,37,12.60
2005,03,14,17,38,12.60
2005,03,14,17,39,12.40
2005,03,14,17,40,12.30
2005,03,14,17,41,12.20
2005,03,14,17,42,12.20
2005,03,14,17,43,12.20
2005,03,14,17,44,12.10
2005,03,14,17,45,12.10
2005,03,14,17,46,12.10
2005,03,14,17,47,12.10